GFSSE_sfc_30mbdewp_231.txt.gz
Dewpoint
72 74 75 74 73 73 72 73 74 74 74 75 75 75 75 75 75 75 75 75 74 74 74 73 70 71 72 72 73 73 73 73 72 71 72 72 71 71 71 71 71 71 72
73 74 75 74 73 73 73 73 73 74 74 73 74 74 73 73 73 74 73 72 74 74 74 73 70 71 72 73 72 72 72 73 72 71 71 70 70 70 71 71 72 72 72
72 74 74 74 73 73 73 73 73 74 74 73 74 73 72 72 74 74 73 72 72 73 73 71 71 72 71 72 73 72 72 71 71 71 72 71 70 71 71 71 72 72 72
72 73 74 74 74 73 74 73 73 73 74 74 74 73 72 72 72 72 74 74 73 71 72 72 72 73 73 73 73 72 72 70 70 70 70 70 70 71 70 72 71 71 72
70 73 74 75 74 73 73 73 73 73 73 74 73 72 72 71 71 71 71 71 73 73 72 72 73 73 73 73 72 72 71 70 67 69 69 70 71 71 71 71 71 71 72
70 73 75 75 73 73 73 73 73 73 73 74 74 72 71 71 71 72 72 73 72 71 72 72 72 71 72 72 71 70 70 66 69 68 69 71 71 71 71 71 71 71 71
72 74 74 74 74 74 74 73 73 73 73 73 73 72 71 71 71 71 70 70 70 70 71 71 71 71 71 71 69 69 68 65 67 69 70 70 71 72 71 72 71 71 71
73 74 74 74 74 75 74 74 74 73 73 73 72 72 71 71 71 69 70 71 71 71 71 70 70 70 70 70 67 69 68 67 66 68 70 71 72 72 70 71 71 71 71
72 73 74 73 72 74 75 74 73 73 72 70 69 68 68 69 69 70 70 69 69 69 70 71 70 70 71 69 68 68 67 67 67 68 68 70 72 71 70 71 71 70 70
71 73 73 73 73 74 74 73 73 72 70 69 69 68 68 69 68 70 69 68 69 69 69 69 71 70 70 70 68 69 68 66 67 68 69 69 70 70 71 71 71 71 71
70 71 71 72 74 74 74 73 73 71 70 70 70 69 68 67 70 70 69 67 67 67 68 69 69 70 70 70 70 69 68 68 66 67 68 68 70 70 70 71 71 71 71
67 69 70 71 72 73 73 73 73 72 72 70 68 67 64 66 68 69 68 67 67 68 69 69 69 69 70 70 70 69 70 67 67 66 68 69 69 65 68 70 71 71 71
67 68 69 70 71 71 71 73 73 73 72 70 68 66 65 65 65 67 66 67 68 69 69 69 70 70 70 70 69 71 70 68 68 67 67 68 67 68 67 66 70 71 71
67 67 69 69 70 70 73 72 73 72 72 70 68 65 65 64 65 65 65 68 69 69 69 70 69 69 70 71 69 70 69 70 70 69 68 68 65 67 67 67 68 70 71
67 68 68 69 70 70 70 71 72 71 71 70 69 66 65 66 65 65 65 69 70 69 68 68 69 69 70 70 71 70 68 70 69 69 69 69 67 68 68 68 68 69 70
68 68 69 69 69 71 71 71 71 71 69 70 70 69 68 67 66 65 65 66 69 68 68 69 69 69 68 64 70 70 70 70 67 69 68 69 69 67 68 68 68 68 68
68 67 68 69 70 70 70 70 71 70 70 70 70 71 70 70 69 69 68 66 65 68 68 69 70 70 69 68 69 70 70 70 68 70 69 70 69 70 68 68 70 70 70
68 68 67 68 70 69 70 70 71 70 71 70 71 71 72 71 70 70 68 67 67 69 70 69 69 68 68 69 69 69 69 71 71 70 70 71 70 70 70 70 71 71 70
69 69 68 69 69 70 70 71 71 70 71 70 71 71 72 71 70 69 68 67 67 66 69 68 69 69 67 67 68 68 69 69 70 70 70 70 69 70 69 71 71 71 69
69 69 68 67 68 70 71 71 71 71 71 70 70 70 71 71 69 69 69 67 68 69 70 69 68 68 66 68 69 67 66 69 69 70 70 69 69 70 70 69 71 71 72
68 68 64 63 69 70 69 69 69 69 69 69 69 70 70 71 70 70 69 66 66 66 68 69 68 68 67 70 67 66 65 64 69 68 68 69 69 69 70 69 69 70 72
66 64 67 69 69 69 70 70 69 70 70 70 71 70 70 70 70 70 69 69 67 67 68 70 68 68 65 65 66 65 61 63 66 68 68 68 69 68 68 68 69 70 70
63 66 68 69 69 70 70 70 70 71 70 70 70 68 71 71 71 70 69 70 70 69 68 69 70 68 65 67 69 66 60 58 62 67 66 67 65 67 67 68 69 68 68
65 68 68 69 69 70 71 70 68 68 67 68 68 70 70 70 71 70 69 68 70 71 70 69 71 68 68 66 67 68 67 64 62 60 64 65 64 65 66 68 68 68 68
65 67 69 70 70 71 71 71 69 67 69 69 68 67 68 70 71 71 71 71 70 70 70 70 69 69 69 68 64 63 67 64 65 61 58 60 65 65 67 68 67 67 67
67 67 69 70 71 71 71 70 67 68 69 69 69 69 69 72 71 71 71 71 71 72 71 71 72 70 68 69 69 67 63 63 64 64 63 63 62 65 65 67 68 68 68

GFSSE_sfc_30mbdewp_234.txt.gz
Dewpoint
72 73 74 73 72 72 73 73 74 75 75 76 76 75 75 75 75 75 74 73 74 73 73 70 71 71 71 72 72 72 72 72 72 72 71 72 72 71 72 71 72 72 71
73 74 74 73 73 73 73 74 75 74 74 75 75 74 74 73 73 73 74 74 74 74 73 70 72 72 72 72 72 72 72 71 72 71 71 71 71 71 71 71 71 72 71
73 74 74 74 73 73 73 74 74 73 73 73 73 73 73 72 72 71 72 74 74 73 72 71 72 73 73 72 72 72 72 72 72 71 71 71 71 71 71 71 71 71 72
73 73 73 73 74 73 73 74 75 72 72 73 73 73 73 74 74 74 72 71 73 73 71 72 73 72 72 72 72 72 71 72 72 71 71 71 71 71 71 71 71 71 71
73 73 73 74 74 73 73 73 74 74 73 72 72 72 71 71 72 73 73 73 73 71 73 72 72 72 72 72 70 71 71 69 69 70 70 71 71 70 71 71 71 71 71
72 73 74 73 73 73 73 73 73 74 73 73 72 72 71 71 71 72 71 71 72 73 72 72 71 70 70 68 67 69 68 68 70 69 70 72 71 70 70 71 71 71 71
72 74 73 73 73 73 72 72 72 73 73 73 72 71 71 71 71 71 70 71 71 71 71 71 70 70 70 69 67 67 67 66 69 70 70 71 71 71 71 70 70 71 71
72 73 73 73 73 73 72 72 72 73 73 73 72 72 71 72 71 69 70 70 70 70 70 70 70 69 70 69 68 68 67 67 69 69 69 71 71 72 71 70 71 71 71
73 73 73 72 72 72 73 72 72 73 73 73 72 72 71 70 70 71 70 71 70 71 71 71 70 70 70 70 68 68 66 68 68 69 69 70 70 70 69 70 71 71 71
72 72 72 72 73 73 74 73 73 72 72 71 70 69 68 69 68 70 69 68 69 69 69 69 71 71 71 70 69 69 66 68 67 68 69 70 71 70 70 70 70 71 71
72 72 73 72 73 74 74 73 73 72 70 70 69 69 69 70 69 70 69 69 68 67 68 69 69 70 70 71 70 68 66 68 66 68 68 69 70 70 70 71 71 70 70
71 72 72 72 74 74 73 72 72 71 71 70 71 69 67 65 68 69 69 69 68 69 69 70 69 70 70 70 71 70 70 68 67 68 68 69 70 69 70 71 71 71 72
70 70 71 72 73 73 72 73 72 72 71 70 69 67 64 64 65 68 67 65 68 68 69 70 70 70 70 70 70 70 69 68 68 67 67 68 69 66 67 70 71 71 71
68 69 70 71 72 72 72 73 72 72 72 70 69 67 65 64 64 65 65 65 68 69 69 69 70 69 70 70 70 69 70 69 69 67 67 68 68 66 68 69 70 71 71
68 68 70 71 71 70 72 72 73 72 72 71 70 67 65 63 63 64 65 65 69 70 69 69 69 69 69 70 70 70 68 68 70 70 68 68 67 67 68 67 69 70 71
68 68 69 70 70 70 71 72 72 72 72 71 70 68 65 65 65 64 63 64 66 68 68 68 69 69 69 70 70 71 69 69 70 69 70 69 67 69 68 68 68 69 69
70 70 69 70 70 70 70 71 71 71 70 70 70 70 68 67 67 67 67 67 66 66 69 70 70 70 69 67 66 70 70 70 70 68 69 69 70 68 67 68 69 69 69
69 69 70 69 70 70 70 71 71 70 70 70 70 70 71 70 69 69 69 67 67 67 68 69 69 69 68 69 69 69 70 70 70 69 70 70 69 69 69 69 70 70 69
69 70 69 70 70 70 70 70 70 70 70 71 71 70 71 71 70 70 69 68 67 66 67 69 69 69 66 69 68 69 69 70 70 70 70 70 70 69 70 70 71 71 70
69 69 70 70 69 70 70 71 71 71 70 71 70 70 71 71 70 69 68 67 67 67 68 69 68 68 68 68 69 68 67 69 70 70 70 70 70 70 70 69 71 71 72
68 68 69 68 68 70 70 69 69 69 69 70 70 70 71 71 70 69 68 68 66 65 66 67 68 67 66 68 67 66 65 66 69 70 70 69 69 70 70 70 70 71 71
67 68 68 66 66 69 70 69 69 69 70 69 70 70 70 71 69 70 69 68 67 66 65 67 69 67 64 64 66 64 61 63 68 68 69 69 69 70 70 69 69 70 70
66 66 67 66 69 70 70 70 70 71 70 70 70 70 70 70 70 70 70 69 69 69 68 67 69 68 65 68 68 65 60 57 61 67 67 67 69 69 69 69 69 69 69
65 66 67 69 69 69 70 69 68 68 67 68 69 69 69 70 71 70 70 69 69 70 70 69 69 69 68 66 68 68 67 64 60 59 65 65 63 64 68 68 69 69 69
64 65 67 68 69 70 70 70 69 68 68 68 68 68 69 69 70 70 70 69 68 68 70 70 69 69 69 68 66 67 66 65 66 61 58 60 65 66 67 68 69 69 68
63 67 69 69 69 70 70 70 69 68 67 69 68 67 67 68 69 70 71 70 70 70 70 70 70 70 69 68 67 64 63 61 62 62 62 61 62 65 67 69 68 68 68

GFSSE_sfc_30mbdewp_237.txt.gz
Dewpoint
72 73 73 71 72 72 73 73 74 75 75 75 75 75 74 74 73 73 73 73 74 72 70 71 71 70 71 70 70 72 71 72 72 72 72 71 71 71 71 71 72 71 70
73 74 74 72 73 73 74 74 75 75 75 75 75 75 74 74 74 73 73 73 74 71 70 71 70 72 72 71 70 71 72 71 71 70 71 71 71 71 71 71 71 71 69
73 73 73 73 73 73 74 74 74 74 74 74 74 74 73 73 73 74 73 74 73 71 71 72 72 72 72 72 71 70 71 71 71 71 71 71 71 70 71 71 71 71 70
73 73 73 73 73 73 74 73 73 73 72 72 73 74 73 72 71 72 73 73 72 70 72 72 72 72 72 71 72 71 72 71 71 71 71 71 71 71 71 71 71 71 71
73 72 73 73 73 73 74 73 72 72 71 72 73 74 74 74 73 72 71 72 72 72 72 71 71 71 71 71 71 71 71 71 71 71 70 71 70 71 71 71 71 71 71
72 72 73 73 72 73 74 74 73 72 72 72 71 71 72 71 72 73 73 73 72 72 72 71 68 69 69 68 69 70 68 70 70 70 71 70 70 71 71 71 71 71 70
72 72 72 73 73 72 73 74 73 73 72 72 71 71 71 71 72 72 71 71 71 72 72 71 70 69 67 67 67 68 67 70 69 70 71 70 70 71 70 70 71 71 71
72 72 72 73 72 72 72 73 73 73 72 72 71 71 71 71 70 69 69 70 70 70 70 70 70 69 68 67 67 67 66 68 70 69 70 70 70 70 70 70 71 71 71
72 72 72 72 72 72 72 72 72 72 73 72 71 71 71 71 69 70 71 71 71 71 71 71 70 69 69 69 67 68 67 68 69 69 69 69 70 70 70 71 71 70 70
73 72 72 72 71 72 72 72 71 73 72 73 72 72 71 70 71 71 70 70 69 69 69 70 70 70 69 70 68 68 65 67 68 68 69 69 71 69 69 71 70 71 71
71 72 72 71 71 73 73 71 71 73 72 72 71 69 69 70 69 70 69 69 69 67 67 69 69 70 71 71 70 68 66 68 67 68 69 69 71 70 69 70 70 71 70
69 71 71 72 72 73 74 73 73 72 71 71 70 70 68 67 67 69 69 69 68 70 70 70 70 70 70 71 71 69 68 68 66 67 68 69 70 70 70 70 71 70 70
69 70 71 72 73 73 73 72 72 71 71 70 70 68 65 64 65 68 68 64 66 68 69 69 70 70 70 70 70 69 69 69 67 67 68 68 69 68 69 70 71 71 71
70 70 71 72 73 73 72 72 72 71 71 70 69 68 65 64 63 64 66 65 66 68 69 69 69 69 70 70 70 69 69 69 68 67 67 66 66 66 68 68 70 70 71
69 69 71 72 72 72 72 72 72 71 71 71 69 68 66 65 63 62 64 65 66 69 69 68 69 69 69 70 70 69 69 70 69 68 67 67 65 66 68 68 68 70 70
69 69 70 71 71 71 72 72 72 72 72 71 70 69 67 65 64 64 63 63 63 67 67 68 68 69 69 70 70 70 70 68 70 70 69 67 69 67 68 68 67 69 70
69 69 70 70 71 70 71 72 72 72 72 71 71 70 68 66 65 65 64 64 66 66 68 69 70 70 70 68 66 69 70 69 69 69 69 68 68 68 68 68 69 69 69
69 70 70 70 70 70 70 71 71 71 71 71 70 70 69 68 67 67 68 68 67 67 68 67 69 69 68 68 68 68 69 70 70 69 69 68 68 68 68 68 69 69 69
69 69 70 70 70 70 70 70 71 71 70 70 70 70 70 70 69 68 68 68 68 66 66 69 69 69 66 68 68 69 69 70 70 70 69 69 68 68 69 69 70 70 69
69 69 69 70 70 70 70 70 70 70 70 70 70 70 70 71 71 70 69 68 67 66 67 68 68 68 68 68 69 68 68 69 70 70 70 70 70 69 69 69 70 70 71
69 68 69 69 69 70 69 69 69 68 69 69 70 70 70 71 70 70 68 67 67 65 66 66 69 67 65 67 67 66 65 67 69 70 70 70 70 69 70 70 70 71 71
68 68 69 68 68 69 70 69 69 69 69 69 70 70 70 71 70 69 68 67 67 65 65 65 68 66 64 64 65 63 61 63 67 68 69 70 69 69 70 70 69 70 70
67 67 67 68 67 68 69 70 70 70 70 70 69 70 70 71 70 68 69 69 68 67 66 67 67 68 65 67 68 64 59 58 62 66 67 68 69 69 69 70 69 69 70
66 66 67 67 67 68 70 69 69 68 67 68 69 69 70 71 70 69 69 69 68 68 69 68 69 68 68 65 67 69 67 63 58 60 65 66 65 67 69 69 69 69 69
64 65 66 67 68 70 70 69 69 68 68 68 68 68 69 69 70 70 70 70 69 68 69 70 69 69 69 68 66 66 66 65 65 61 59 60 65 66 66 68 69 69 69
63 65 66 66 68 69 69 69 69 68 68 68 68 67 67 68 68 70 70 69 69 69 68 68 69 69 69 69 68 66 64 61 60 62 60 60 62 62 66 68 68 69 69

GFSSE_sfc_30mbdewp_240.txt.gz
Dewpoint
71 72 73 73 73 73 73 74 75 74 74 75 75 74 73 73 73 74 73 74 72 71 72 72 72 71 71 69 71 71 70 72 72 72 72 72 72 72 72 70 70 72 72
72 72 73 73 72 73 74 74 75 75 75 74 74 74 73 73 73 73 73 74 70 70 71 71 70 71 70 69 72 71 72 72 72 71 71 71 71 72 71 71 70 70 72
72 72 72 73 73 73 74 75 75 74 74 74 74 74 73 72 72 73 73 73 70 70 71 72 72 71 71 70 69 71 72 71 71 71 71 71 71 71 71 71 71 69 71
72 72 73 73 73 73 74 74 72 73 74 74 73 73 73 73 73 73 74 73 70 71 72 73 72 71 71 71 71 71 72 71 71 71 71 71 70 71 71 71 71 70 70
72 73 73 74 74 73 73 73 73 73 72 73 72 72 72 71 72 73 73 72 71 72 71 70 67 63 68 72 71 72 72 71 72 71 71 71 71 71 71 71 72 70 70
72 73 73 73 73 73 73 72 72 71 72 73 74 74 73 73 72 72 72 71 72 72 71 69 67 67 68 70 70 70 70 71 71 70 71 71 71 71 70 71 71 71 68
71 72 73 73 72 74 73 72 71 71 71 72 72 72 71 71 71 72 73 73 72 72 71 69 68 68 68 68 69 69 70 70 70 70 71 71 71 70 70 71 70 70 68
71 72 73 73 72 74 74 73 72 72 72 72 72 71 71 73 72 71 71 71 71 71 70 70 69 68 67 67 67 68 68 70 70 70 70 70 70 70 70 70 71 71 71
71 72 72 70 72 72 73 74 73 72 72 72 71 71 71 70 69 70 70 70 71 71 70 70 69 68 68 68 67 67 67 69 69 70 70 69 69 67 70 70 71 71 71
72 72 72 71 71 72 72 72 73 73 72 72 71 71 71 70 69 71 71 71 70 70 69 69 70 69 67 68 68 67 67 68 69 69 69 69 67 70 70 71 70 70 70
71 72 72 71 71 72 72 71 72 73 72 72 71 70 69 70 70 70 70 69 69 68 67 68 69 69 69 68 70 70 67 68 68 69 69 68 70 69 70 70 71 71 70
68 71 71 71 71 72 72 72 72 73 72 72 71 69 70 69 68 69 69 69 69 69 70 70 70 70 70 70 70 66 68 68 67 68 69 69 70 70 69 70 71 71 70
69 70 71 72 72 73 72 72 72 72 71 71 70 69 66 65 66 68 68 67 65 67 68 69 70 70 70 70 70 69 69 69 67 67 68 67 69 68 69 70 71 70 70
68 69 71 72 72 73 73 72 72 71 71 70 70 68 66 64 63 63 65 66 65 68 69 70 69 69 70 70 70 70 69 69 69 68 68 67 68 65 69 70 70 71 70
65 69 70 72 73 72 72 72 72 71 71 70 70 68 67 65 64 63 63 65 66 68 69 68 68 69 69 70 71 70 69 69 69 68 68 67 66 64 68 67 69 70 70
69 69 71 72 72 72 72 72 72 72 71 71 70 69 68 67 66 63 63 63 64 65 67 67 69 69 70 70 70 70 69 70 70 69 68 68 65 65 66 67 69 70 70
69 69 70 71 72 71 72 72 72 72 72 71 71 70 69 68 66 64 64 63 64 66 66 68 69 70 70 68 69 70 70 69 70 70 69 67 68 68 66 67 67 69 70
69 69 70 70 71 71 71 71 72 71 71 71 71 71 70 69 67 66 66 66 67 67 67 67 69 68 68 68 69 68 70 70 69 69 70 69 68 67 68 68 68 69 69
70 69 69 70 71 70 70 71 71 71 71 71 71 70 70 70 69 67 67 68 68 67 66 68 69 69 66 68 69 69 69 70 70 70 69 69 68 68 68 68 69 69 69
70 70 70 69 71 71 70 70 70 70 70 70 70 70 70 71 70 69 69 69 68 66 66 68 68 68 68 68 69 69 68 70 70 70 70 69 69 68 69 68 69 70 70
70 69 68 68 70 70 69 69 69 68 69 70 70 70 70 70 71 70 70 68 67 66 65 67 68 67 66 67 67 66 66 68 69 70 70 69 69 68 68 69 69 69 70
68 68 68 69 69 69 69 69 69 69 69 69 70 70 70 70 71 70 69 68 67 66 64 65 67 67 65 65 65 63 61 63 67 69 70 69 70 70 69 70 69 69 70
68 68 67 68 68 69 69 70 69 70 70 70 69 70 70 71 70 70 69 68 67 67 65 65 66 68 66 68 68 64 59 58 62 66 68 69 70 69 69 69 70 70 70
67 68 68 68 68 68 69 69 68 67 67 68 69 69 69 70 71 70 69 69 69 68 68 68 68 68 68 66 67 69 67 63 58 59 65 67 67 67 69 69 69 70 70
66 66 67 67 67 68 69 69 68 68 68 68 68 69 69 70 70 70 69 69 69 69 68 69 69 69 69 68 67 66 66 65 65 61 58 60 64 66 66 70 69 69 70
64 65 66 66 67 67 69 69 69 68 68 68 68 68 68 69 69 70 70 70 69 69 68 68 69 70 69 68 68 67 65 62 61 62 61 60 62 63 66 67 69 69 70

GFSSE_sfc_30mbdewp_246.txt.gz
Dewpoint
69 68 74 74 74 75 76 75 76 74 73 72 73 72 72 72 73 74 73 72 73 73 72 73 72 70 72 72 72 73 73 72 72 71 72 70 71 72 71 70 69 65 68
68 68 74 75 75 76 76 76 75 74 73 73 73 72 71 72 74 73 72 71 72 73 72 70 70 70 72 71 73 73 72 72 72 72 72 71 71 70 71 70 69 69 68
67 68 71 75 75 75 76 75 75 74 73 74 73 71 73 73 73 73 70 71 72 71 72 72 71 69 72 72 72 72 72 71 71 71 70 68 69 70 69 71 71 70 70
68 67 68 75 75 75 75 75 75 74 74 73 72 73 73 72 73 73 70 71 71 73 73 70 71 71 70 71 72 72 72 72 71 70 67 66 66 70 70 71 72 71 71
68 68 71 75 75 74 75 75 75 74 73 73 73 72 72 72 73 73 70 71 73 72 72 68 67 70 70 71 72 72 72 72 70 69 64 68 65 70 71 70 71 71 70
69 69 73 74 74 74 74 75 73 73 74 74 73 73 73 72 73 72 70 71 72 70 69 68 64 66 70 71 71 70 71 72 70 65 65 68 67 71 71 69 69 71 72
68 70 71 74 74 74 74 74 73 73 73 72 72 71 72 72 72 72 72 71 71 69 68 68 67 67 68 69 70 70 70 71 66 65 65 66 68 71 71 71 69 71 71
66 67 69 74 74 74 73 73 73 74 72 73 73 73 72 72 72 72 72 72 72 71 70 69 68 68 68 68 68 68 70 70 66 64 66 67 70 70 70 71 69 70 71
62 63 67 69 72 73 73 72 72 73 73 73 72 73 72 71 70 70 70 70 70 70 69 69 68 68 68 67 68 68 68 68 67 64 64 68 72 71 70 70 71 70 71
61 63 66 67 69 70 71 71 71 72 72 72 73 73 68 70 69 70 69 70 70 70 70 70 68 68 68 69 68 67 67 67 65 64 64 64 68 70 71 71 70 70 70
61 63 66 67 69 68 68 70 72 72 72 72 72 69 64 65 57 67 67 69 68 69 67 68 69 69 69 68 69 68 68 62 65 64 63 66 68 68 70 71 71 70 70
60 62 64 67 68 70 68 70 70 73 69 72 68 69 68 64 67 66 67 67 67 68 69 69 70 71 70 64 67 69 66 65 64 62 66 66 66 67 70 71 71 70 70
58 61 63 65 65 66 65 67 66 73 72 71 71 69 69 68 65 65 64 64 63 65 64 66 66 68 66 65 64 65 62 65 62 62 66 68 68 68 69 70 71 71 70
57 59 62 63 65 64 64 64 63 70 72 67 70 70 68 66 65 65 63 66 63 65 63 64 66 68 67 67 66 65 65 64 66 62 64 67 68 68 64 68 69 70 70
58 58 59 63 66 65 65 63 64 68 69 67 70 70 69 66 65 64 65 66 64 63 64 64 67 69 69 68 68 67 66 66 66 63 65 67 68 66 64 62 66 69 70
60 60 59 62 66 66 66 66 68 68 72 70 69 68 69 68 68 68 68 68 64 64 63 64 69 68 69 70 68 67 68 67 68 68 64 66 65 65 67 68 64 67 69
66 67 63 63 64 66 66 66 67 68 70 71 70 70 70 69 69 69 70 68 64 64 64 65 68 69 70 69 68 67 69 68 69 69 68 64 66 67 66 68 67 70 69
65 65 63 63 62 65 66 66 67 68 66 71 72 71 69 70 71 70 69 68 65 64 64 65 68 70 69 69 68 68 68 70 69 69 69 68 64 64 68 67 69 69 69
64 64 69 68 69 70 71 66 67 67 69 67 71 70 70 70 72 72 70 68 68 66 67 66 68 70 67 67 68 68 68 68 69 68 68 68 66 66 65 66 69 69 68
65 66 70 69 68 66 68 68 70 67 67 68 71 70 70 70 72 71 70 69 68 66 66 65 68 68 68 67 66 68 69 68 69 69 68 68 68 67 66 66 66 65 69
69 68 70 68 68 67 68 66 68 64 65 69 69 70 70 70 70 71 70 70 69 67 66 67 68 68 65 65 64 67 67 68 69 70 68 69 68 67 65 66 68 64 66
69 71 70 69 68 68 68 70 69 68 69 68 69 71 70 70 71 71 71 71 70 66 67 67 67 69 65 65 66 65 65 66 67 68 68 68 67 67 65 65 66 66 65
69 69 69 70 69 69 70 71 70 70 69 69 69 68 70 71 71 71 71 71 70 69 65 67 67 66 65 66 68 67 62 60 65 67 68 67 67 68 66 65 64 64 65
68 69 70 69 68 67 69 69 70 68 68 69 70 71 70 71 71 71 71 71 70 68 65 66 65 65 67 66 67 67 67 65 63 62 67 67 66 68 66 65 65 65 65
66 66 69 69 66 67 69 69 69 68 69 68 71 70 71 71 70 70 70 70 70 69 67 66 65 67 64 66 66 67 67 67 65 64 62 65 65 65 66 67 65 65 66
64 65 67 68 68 69 70 70 69 69 68 69 70 70 68 70 69 70 70 70 69 70 69 68 68 68 66 65 66 67 67 66 65 65 60 61 60 63 65 66 66 65 66